ICE43V BIAR-BIKF

Flight info

Callsign ICE43V
Flight time 0h 38m
Altitude 26000
Route DEVUD DEVUD3K
Aircraft B38M/M-SDE1FGHILORVWXY/HB1

Departure

Time 2026-04-27 21:12
Airport Akureyri International Airport (BIAR)

Arrival

Time 2026-04-27 21:51
Airport Keflavik International Airport (BIKF)
Time Latitude Longitude Altitude Speed Heading
2026-04-27 20:59 65.65411 -18.07490 18 ft 0 kts 25°
2026-04-27 21:07 65.65416 -18.07484 18 ft 3 kts 31°
2026-04-27 21:07 65.65434 -18.07442 18 ft 2 kts 26°
2026-04-27 21:08 65.65462 -18.07421 20 ft 6 kts 22°
2026-04-27 21:08 65.65483 -18.07347 18 ft 5 kts 86°
2026-04-27 21:08 65.65485 -18.07240 17 ft 8 kts 71°
2026-04-27 21:08 65.65535 -18.07185 19 ft 11 kts
2026-04-27 21:09 65.65669 -18.07207 20 ft 26 kts 357°
2026-04-27 21:09 65.65858 -18.07236 19 ft 28 kts 351°
2026-04-27 21:09 65.66062 -18.07286 18 ft 30 kts 360°
2026-04-27 21:09 65.66275 -18.07317 19 ft 30 kts 354°
2026-04-27 21:10 65.66490 -18.07360 20 ft 31 kts 357°
2026-04-27 21:10 65.66692 -18.07405 18 ft 22 kts 354°
2026-04-27 21:10 65.66795 -18.07429 18 ft 11 kts 341°
2026-04-27 21:10 65.66838 -18.07474 19 ft 1 kts 357°
2026-04-27 21:11 65.66842 -18.07464 19 ft 1 kts 39°
2026-04-27 21:11 65.66844 -18.07439 20 ft 1 kts 87°
2026-04-27 21:11 65.66840 -18.07432 20 ft 1 kts 138°
2026-04-27 21:11 65.66808 -18.07420 21 ft 10 kts 175°
2026-04-27 21:12 65.66591 -18.07382 18 ft 65 kts 175°
2026-04-27 21:12 65.65910 -18.07237 18 ft 127 kts 175°
2026-04-27 21:12 65.64991 -18.06779 485 ft 123 kts 165°
2026-04-27 21:12 65.64070 -18.06712 740 ft 137 kts 187°
2026-04-27 21:13 65.63097 -18.06665 1289 ft 139 kts 176°
2026-04-27 21:13 65.62142 -18.06337 1921 ft 142 kts 176°
2026-04-27 21:13 65.61472 -18.06164 2254 ft 150 kts 178°
2026-04-27 21:13 65.60426 -18.06491 2716 ft 156 kts 196°
2026-04-27 21:14 65.59356 -18.07300 2993 ft 170 kts 197°
2026-04-27 21:14 65.58149 -18.08030 3061 ft 187 kts 197°
2026-04-27 21:14 65.56883 -18.09074 3114 ft 198 kts 200°
2026-04-27 21:14 65.55613 -18.10157 3460 ft 182 kts 201°
2026-04-27 21:15 65.54407 -18.11225 3828 ft 194 kts 202°
2026-04-27 21:15 65.53074 -18.12419 4280 ft 211 kts 202°
2026-04-27 21:15 65.51665 -18.13668 4748 ft 216 kts 202°
2026-04-27 21:15 65.50251 -18.14918 5234 ft 216 kts 204°
2026-04-27 21:16 65.48888 -18.16337 5727 ft 215 kts 207°
2026-04-27 21:16 65.47506 -18.17797 6564 ft 219 kts 206°
2026-04-27 21:16 65.46099 -18.19274 7472 ft 222 kts 207°
2026-04-27 21:16 65.44650 -18.20803 8376 ft 227 kts 207°
2026-04-27 21:17 65.43190 -18.22344 9277 ft 231 kts 207°
2026-04-27 21:17 65.41681 -18.23935 10099 ft 238 kts 207°
2026-04-27 21:17 65.40109 -18.25596 10636 ft 253 kts 207°
2026-04-27 21:17 65.38433 -18.27362 11105 ft 270 kts 207°
2026-04-27 21:18 65.36680 -18.29200 11492 ft 287 kts 206°
2026-04-27 21:18 65.34800 -18.31168 11927 ft 304 kts 207°
2026-04-27 21:18 65.32816 -18.33261 12448 ft 317 kts 208°
2026-04-27 21:18 65.30915 -18.36048 13118 ft 324 kts 218°
2026-04-27 21:19 65.29249 -18.39753 13828 ft 331 kts 228°
2026-04-27 21:19 65.27802 -18.44102 14479 ft 337 kts 231°
2026-04-27 21:19 65.26347 -18.48555 15171 ft 342 kts 231°
2026-04-27 21:20 65.23345 -18.57671 16646 ft 350 kts 231°
2026-04-27 21:20 65.21802 -18.62342 17544 ft 349 kts 231°
2026-04-27 21:20 65.20311 -18.66933 18423 ft 347 kts 231°
2026-04-27 21:20 65.19236 -18.72107 19171 ft 351 kts 255°
2026-04-27 21:21 65.18486 -18.77388 19985 ft 339 kts 234°
2026-04-27 21:21 65.16778 -18.81269 20818 ft 334 kts 216°
2026-04-27 21:21 65.14673 -18.84089 21495 ft 336 kts 208°
2026-04-27 21:21 65.12543 -18.86358 22261 ft 334 kts 207°
2026-04-27 21:22 65.10457 -18.88717 23050 ft 330 kts 210°
2026-04-27 21:22 65.08462 -18.91355 23779 ft 326 kts 213°
2026-04-27 21:22 65.06620 -18.94450 24411 ft 322 kts 220°
2026-04-27 21:22 65.04953 -18.97972 25031 ft 320 kts 223°
2026-04-27 21:23 65.03287 -19.01498 25465 ft 322 kts 222°
2026-04-27 21:23 65.01540 -19.04887 25807 ft 328 kts 220°
2026-04-27 21:23 64.99709 -19.08370 25875 ft 341 kts 221°
2026-04-27 21:23 64.97839 -19.12027 25884 ft 356 kts 221°
2026-04-27 21:24 64.95928 -19.15796 25885 ft 359 kts 221°
2026-04-27 21:24 64.94023 -19.19509 25876 ft 348 kts 220°
2026-04-27 21:24 64.92152 -19.23128 25876 ft 354 kts 220°
2026-04-27 21:24 64.90222 -19.26873 25893 ft 353 kts 220°
2026-04-27 21:25 64.88323 -19.30557 25869 ft 355 kts 220°
2026-04-27 21:25 64.86413 -19.34251 25904 ft 355 kts 220°
2026-04-27 21:25 64.84500 -19.37933 25903 ft 355 kts 220°
2026-04-27 21:25 64.82616 -19.41571 25898 ft 355 kts 220°
2026-04-27 21:26 64.80703 -19.45248 25899 ft 355 kts 220°
2026-04-27 21:26 64.78789 -19.48915 25896 ft 355 kts 220°
2026-04-27 21:26 64.76877 -19.52577 25887 ft 356 kts 220°
2026-04-27 21:26 64.74936 -19.56288 25886 ft 355 kts 220°
2026-04-27 21:27 64.73023 -19.59937 25882 ft 355 kts 220°
2026-04-27 21:27 64.71108 -19.63582 25885 ft 355 kts 220°
2026-04-27 21:27 64.69194 -19.67221 25886 ft 354 kts 220°
2026-04-27 21:27 64.67275 -19.70860 25924 ft 355 kts 220°
2026-04-27 21:28 64.65356 -19.74494 25942 ft 354 kts 219°
2026-04-27 21:28 64.63455 -19.78086 25738 ft 348 kts 219°
2026-04-27 21:28 64.61603 -19.81577 25648 ft 337 kts 219°
2026-04-27 21:28 64.60379 -19.83884 25566 ft 332 kts 219°
2026-04-27 21:29 64.58599 -19.87236 25216 ft 325 kts 218°
2026-04-27 21:29 64.56855 -19.90509 24809 ft 318 kts 218°
2026-04-27 21:29 64.55136 -19.93728 24295 ft 319 kts 218°
2026-04-27 21:29 64.53333 -19.97100 23824 ft 349 kts 218°
2026-04-27 21:30 64.51358 -20.00789 23344 ft 374 kts 218°
2026-04-27 21:30 64.49310 -20.04608 22824 ft 380 kts 218°
2026-04-27 21:30 64.47257 -20.08431 22333 ft 385 kts 218°
2026-04-27 21:30 64.45165 -20.12315 21820 ft 384 kts 218°
2026-04-27 21:31 64.43117 -20.16109 21306 ft 370 kts 218°
2026-04-27 21:31 64.41139 -20.19768 20778 ft 359 kts 218°
2026-04-27 21:31 64.39192 -20.23361 20269 ft 359 kts 218°
2026-04-27 21:31 64.37239 -20.26958 19784 ft 359 kts 218°
2026-04-27 21:32 64.35267 -20.30585 19213 ft 363 kts 218°
2026-04-27 21:32 64.33290 -20.34211 18670 ft 364 kts 217°
2026-04-27 21:32 64.31292 -20.37872 18112 ft 368 kts 217°
2026-04-27 21:32 64.29306 -20.41718 17468 ft 369 kts 224°
2026-04-27 21:33 64.28024 -20.46693 16865 ft 356 kts 245°
2026-04-27 21:33 64.27545 -20.52303 16273 ft 356 kts 256°
2026-04-27 21:33 64.27310 -20.57987 15732 ft 348 kts 257°
2026-04-27 21:33 64.27064 -20.63446 15204 ft 338 kts 255°
2026-04-27 21:34 64.26761 -20.68756 14697 ft 331 kts 254°
2026-04-27 21:34 64.26459 -20.73945 14204 ft 323 kts 254°
2026-04-27 21:34 64.26182 -20.79057 13508 ft 323 kts 255°
2026-04-27 21:34 64.25903 -20.84218 12562 ft 328 kts 255°
2026-04-27 21:35 64.25611 -20.89474 11984 ft 337 kts 255°
2026-04-27 21:35 64.25310 -20.94878 11881 ft 340 kts 255°
2026-04-27 21:35 64.25008 -21.00316 11816 ft 343 kts 255°
2026-04-27 21:35 64.24706 -21.05740 11290 ft 340 kts 255°
2026-04-27 21:36 64.24404 -21.11087 10922 ft 336 kts 255°
2026-04-27 21:36 64.24095 -21.16433 10861 ft 337 kts 255°
2026-04-27 21:36 64.23781 -21.21869 10846 ft 338 kts 255°
2026-04-27 21:36 64.23473 -21.27231 10602 ft 338 kts 255°
2026-04-27 21:37 64.23165 -21.32566 10180 ft 335 kts 254°
2026-04-27 21:37 64.22859 -21.37822 9710 ft 326 kts 254°
2026-04-27 21:37 64.22558 -21.42938 9113 ft 320 kts 254°
2026-04-27 21:37 64.22256 -21.47968 8534 ft 315 kts 254°
2026-04-27 21:38 64.21958 -21.52935 7946 ft 312 kts 254°
2026-04-27 21:38 64.21666 -21.57832 7427 ft 305 kts 254°
2026-04-27 21:38 64.21384 -21.62598 7098 ft 297 kts 254°
2026-04-27 21:38 64.21211 -21.67366 6808 ft 298 kts 254°
2026-04-27 21:39 64.20841 -21.71973 6532 ft 293 kts 250°
2026-04-27 21:39 64.20477 -21.76604 6287 ft 295 kts 253°
2026-04-27 21:39 64.20210 -21.81297 6103 ft 299 kts 255°
2026-04-27 21:39 64.19950 -21.85982 5947 ft 292 kts 253°
2026-04-27 21:40 64.19672 -21.90497 5737 ft 279 kts 253°
2026-04-27 21:40 64.19408 -21.94678 5459 ft 256 kts 252°
2026-04-27 21:40 64.19147 -21.98713 5203 ft 248 kts 252°
2026-04-27 21:40 64.18905 -22.02480 4903 ft 239 kts 252°
2026-04-27 21:41 64.18672 -22.06174 4576 ft 231 kts 251°
2026-04-27 21:41 64.18436 -22.09823 4223 ft 231 kts 251°
2026-04-27 21:41 64.18199 -22.13479 3870 ft 232 kts 251°
2026-04-27 21:41 64.17965 -22.17131 3608 ft 228 kts 251°
2026-04-27 21:42 64.17746 -22.20645 3506 ft 209 kts 250°
2026-04-27 21:42 64.17552 -22.23755 3421 ft 195 kts 248°
2026-04-27 21:42 64.17349 -22.26751 3274 ft 187 kts 248°
2026-04-27 21:42 64.17150 -22.29726 3126 ft 181 kts 248°
2026-04-27 21:43 64.16963 -22.32589 2971 ft 181 kts 248°
2026-04-27 21:43 64.16776 -22.35412 2836 ft 178 kts 247°
2026-04-27 21:43 64.16601 -22.38146 2704 ft 165 kts 247°
2026-04-27 21:43 64.16419 -22.40776 2574 ft 165 kts 246°
2026-04-27 21:44 64.16203 -22.43322 2459 ft 157 kts 237°
2026-04-27 21:44 64.15796 -22.45756 2386 ft 165 kts 236°
2026-04-27 21:44 64.15403 -22.48269 2398 ft 167 kts 237°
2026-04-27 21:44 64.15008 -22.50793 2417 ft 168 kts 237°
2026-04-27 21:45 64.14615 -22.53302 2413 ft 161 kts 236°
2026-04-27 21:45 64.14258 -22.55607 2399 ft 152 kts 234°
2026-04-27 21:45 64.13848 -22.57498 2336 ft 120 kts 219°
2026-04-27 21:45 64.13304 -22.58844 2274 ft 111 kts 208°
2026-04-27 21:46 64.12676 -22.59786 2223 ft 106 kts 199°
2026-04-27 21:46 64.11980 -22.60361 2202 ft 105 kts 190°
2026-04-27 21:46 64.11255 -22.60555 2213 ft 105 kts 182°
2026-04-27 21:46 64.10528 -22.60539 2228 ft 106 kts 181°
2026-04-27 21:47 64.09798 -22.60538 2234 ft 104 kts 180°
2026-04-27 21:47 64.09097 -22.60532 2251 ft 93 kts 184°
2026-04-27 21:47 64.08447 -22.60547 2228 ft 94 kts 185°
2026-04-27 21:47 64.07774 -22.60589 1280 ft 104 kts 182°
2026-04-27 21:48 64.07089 -22.60650 872 ft 94 kts 180°
2026-04-27 21:48 64.06418 -22.60504 1002 ft 97 kts 177°
2026-04-27 21:48 64.05741 -22.60440 1094 ft 98 kts 184°
2026-04-27 21:48 64.05073 -22.60457 1241 ft 94 kts 182°
2026-04-27 21:49 64.04385 -22.60465 1032 ft 101 kts 181°
2026-04-27 21:49 64.03689 -22.60546 794 ft 98 kts 185°
2026-04-27 21:49 64.03015 -22.60567 790 ft 97 kts 177°
2026-04-27 21:49 64.02329 -22.60526 721 ft 96 kts 177°
2026-04-27 21:50 64.01659 -22.60550 706 ft 99 kts 178°
2026-04-27 21:50 64.00930 -22.60561 501 ft 104 kts 180°
2026-04-27 21:50 64.00207 -22.60540 376 ft 108 kts 176°
2026-04-27 21:50 63.99535 -22.60567 297 ft 97 kts 176°
2026-04-27 21:51 63.98870 -22.60563 200 ft 83 kts 174°
2026-04-27 21:51 63.98442 -22.60536 194 ft 37 kts 182°
2026-04-27 21:51 63.98265 -22.60542 174 ft 16 kts 182°
2026-04-27 21:51 63.98136 -22.60542 172 ft 21 kts 179°
2026-04-27 21:52 63.97978 -22.60543 172 ft 24 kts 179°
2026-04-27 21:52 63.97798 -22.60537 173 ft 27 kts 182°
2026-04-27 21:52 63.97612 -22.60545 175 ft 27 kts 180°
2026-04-27 21:52 63.97471 -22.60567 173 ft 8 kts 215°
2026-04-27 21:53 63.97440 -22.60654 172 ft 15 kts 247°
2026-04-27 21:53 63.97453 -22.60862 168 ft 16 kts 288°
2026-04-27 21:53 63.97464 -22.60905 167 ft 0 kts 316°
2026-04-27 21:54 63.97465 -22.60906 167 ft 3 kts 320°
2026-04-27 21:55 63.97538 -22.60942 167 ft 19 kts 359°
2026-04-27 21:55 63.97721 -22.60943 170 ft 34 kts
2026-04-27 21:55 63.97916 -22.60939 170 ft 30 kts
2026-04-27 21:55 63.98186 -22.60938 166 ft 41 kts 360°
2026-04-27 21:56 63.98450 -22.60941 156 ft 42 kts
2026-04-27 21:56 63.98877 -22.60940 167 ft 18 kts
2026-04-27 21:56 63.98998 -22.60938 169 ft 17 kts
2026-04-27 21:57 63.99113 -22.60937 164 ft 12 kts
2026-04-27 21:57 63.99169 -22.61002 161 ft 8 kts 297°
2026-04-27 21:57 63.99173 -22.61117 158 ft 9 kts 270°
2026-04-27 21:57 63.99173 -22.61307 154 ft 14 kts 271°
2026-04-27 21:58 63.99173 -22.61573 149 ft 17 kts 269°
2026-04-27 21:58 63.99169 -22.61806 144 ft 16 kts 269°
2026-04-27 21:58 63.99177 -22.61932 142 ft 2 kts 289°
2026-04-27 21:58 63.99187 -22.61962 142 ft 3 kts 315°
2026-04-27 21:59 63.99215 -22.61985 142 ft 6 kts 355°
2026-04-27 21:59 63.99265 -22.61985 142 ft 9 kts
2026-04-27 21:59 63.99339 -22.61983 142 ft 12 kts
2026-04-27 21:59 63.99403 -22.62004 142 ft 6 kts 335°
2026-04-27 22:00 63.99432 -22.62042 142 ft 5 kts 330°
2026-04-27 22:00 63.99447 -22.62058 142 ft 0 kts 349°
2026-04-27 22:00 63.99448 -22.62056 142 ft 1 kts
2026-04-27 22:00 63.99466 -22.62024 142 ft 4 kts 56°
2026-04-27 22:01 63.99472 -22.61940 144 ft 6 kts 89°
2026-04-27 22:01 63.99471 -22.61872 142 ft 2 kts 98°
2026-04-27 22:01 63.99466 -22.61858 142 ft 1 kts 129°
2026-04-27 22:01 63.99456 -22.61841 142 ft 3 kts 148°
2026-04-27 22:02 63.99432 -22.61830 142 ft 4 kts 176°
2026-04-27 22:02 63.99417 -22.61830 142 ft 1 kts 179°
2026-04-27 22:02 63.99407 -22.61829 142 ft 0 kts 179°
2026-04-27 22:02 63.99406 -22.61829 142 ft 0 kts 179°